Location: Raleigh
(35.7720°N, 78.6390°W)
Time: 16:12:08
(UTC-05:00)

Amateur Radio Satellites - All Passes

Search period start: 08 February 2016 15:42
Search period end: 09 February 2016 15:42
Location: Raleigh, 35.7720°N, 78.6390°W

Satellite Date Start Highest point End Downlink Frequencies (MHz)
Time Altitude Azimuth
HORYU 2 08 Feb 15:58:00 16:02:25 90° 302° (WNW) 16:06:51 437.375
Cosmos 2491 08 Feb 16:22:14 16:30:33 48° 282° (WNW) 16:38:55 435.465 / 435.565
YUBILEINY 08 Feb 16:22:36 16:29:36 27° 277° (W) 16:36:35 435.215
LilacSat-2 08 Feb 16:46:58 16:48:15 11° 67° (ENE) 16:49:32 437.200
MOZHAYETS 4 08 Feb 16:54:25 16:58:49 43° 287° (WNW) 17:03:12
BEESAT 3 08 Feb 16:54:41 16:58:16 33° 113° (ESE) 17:01:51 437.485
CUTE-I 08 Feb 16:54:44 16:59:05 26° 68° (ENE) 17:03:27 437.470
Cosmos 2504 08 Feb 16:59:59 17:08:33 71° 267° (W) 17:16:29 435.465 / 435.565
STARS 08 Feb 17:00:05 17:03:40 25° 290° (WNW) 17:07:13 437.465
RS-15 08 Feb 17:04:45 17:10:30 14° 5° (N) 17:16:18 29.354- 29.394
Cubesat XI-IV 08 Feb 17:07:28 17:12:14 34° 69° (ENE) 17:17:01 437.490
ISS 08 Feb 17:11:28 17:14:02 21° 328° (NNW) 17:16:36 145.825
AO-7 08 Feb 17:15:27 17:19:36 14° 269° (W) 17:23:47 29.400- 29.500
KKS-1 08 Feb 17:15:44 17:16:13 10° 297° (WNW) 17:16:43 437.445
BEESAT 2 08 Feb 17:15:59 17:19:40 36° 114° (ESE) 17:23:23 435.950
CUBESAT XI-V 08 Feb 17:30:45 17:35:12 42° 98° (E) 17:39:37 437.345
GOMX 1 08 Feb 17:48:51 17:53:07 24° 69° (ENE) 17:57:16 467.674
O/OREOS (USA 219) 08 Feb 17:51:48 17:56:00 35° 65° (ENE) 18:00:11 437.305
BRITE-PL 08 Feb 18:11:34 18:17:15 77° 76° (ENE) 18:22:54 437.365/2234.400
LilacSat-2 08 Feb 18:18:33 18:22:11 41° 261° (W) 18:25:49 437.200
AO-85 08 Feb 18:26:28 18:28:44 13° 41° (NE) 18:30:56 145.980
BEESAT 3 08 Feb 18:33:13 18:36:05 19° 309° (NW) 18:38:58 437.485
CUTE-I 08 Feb 18:34:09 18:38:56 34° 262° (W) 18:43:46 437.470
CANX-2 08 Feb 18:35:55 18:37:40 12° 66° (ENE) 18:39:25 2200.000
CINEMA 3 08 Feb 18:45:22 18:47:35 13° 67° (ENE) 18:49:47 145.822/145.860
Cubesat XI-IV 08 Feb 18:47:57 18:52:18 26° 264° (W) 18:56:41 437.490
BEESAT 2 08 Feb 18:54:54 18:57:40 18° 310° (NW) 19:00:28 435.950
AIST 2 08 Feb 18:59:13 19:03:14 49° 115° (ESE) 19:07:16 435.215
HO-68 08 Feb 19:06:35 19:13:20 46° 68° (ENE) 19:20:07 435.675
PCSat 08 Feb 19:09:02 19:11:43 14° 47° (NE) 19:14:24 145.827
CUBESAT XI-V 08 Feb 19:09:10 19:12:13 17° 293° (WNW) 19:15:17 437.345
STRAND 1 08 Feb 19:12:20 19:17:25 57° 101° (E) 19:22:29 437.568
DOVE 4 08 Feb 19:14:10 19:19:22 87° 78° (ENE) 19:24:20 437.250
RS-15 08 Feb 19:18:28 19:28:50 31° 40° (NE) 19:39:18 29.354- 29.394
COMPASS 1 08 Feb 19:22:40 19:25:45 21° 69° (ENE) 19:28:51 437.405
CUTE 1.7 + AOD 2 08 Feb 19:24:20 19:28:15 40° 73° (ENE) 19:32:13 437.475
GOMX 1 08 Feb 19:25:50 19:30:56 39° 262° (W) 19:35:53 467.674
O/OREOS (USA 219) 08 Feb 19:31:54 19:35:06 19° 260° (W) 19:38:19 437.305
SEEDS 08 Feb 19:33:21 19:37:11 38° 73° (ENE) 19:41:04 437.485
PRISM 08 Feb 19:44:59 19:48:52 36° 99° (E) 19:52:42 437.425
GONETS M04 08 Feb 19:49:35 19:57:58 46° 77° (ENE) 20:06:19
AAUSAT CUBESAT 2 08 Feb 19:51:54 19:55:41 36° 73° (ENE) 19:59:30 437.432
BRITE-PL 08 Feb 19:53:46 19:56:09 13° 270° (W) 19:58:32 437.365/2234.400
ZACube-1 08 Feb 20:03:05 20:05:32 15° 68° (ENE) 20:07:58 437.345
AO-85 08 Feb 20:05:00 20:10:06 89° 60° (ENE) 20:14:43 145.980
CANX-2 08 Feb 20:09:01 20:13:04 48° 261° (W) 20:17:10 2200.000
FUNcube-1 08 Feb 20:12:22 20:15:18 19° 69° (ENE) 20:18:12 145.935
Cosmos 2499 08 Feb 20:13:09 20:19:55 26° 70° (ENE) 20:26:15 435.465 / 435.565
CINEMA 3 08 Feb 20:19:42 20:24:19 53° 260° (W) 20:28:45 145.822/145.860
CUBEBUG 2 08 Feb 20:36:12 20:40:35 81° 79° (E) 20:44:51 437.445
AIST 2 08 Feb 20:39:32 20:42:00 15° 312° (NW) 20:44:28 435.215
UWE-3 08 Feb 20:40:01 20:44:17 62° 75° (ENE) 20:48:27 435.000/436.395/437.385
Oscar 11 08 Feb 20:45:54 20:50:08 66° 76° (ENE) 20:54:25 145.826/435.025
PCSat 08 Feb 20:50:21 20:55:49 86° 245° (WSW) 21:01:14 145.827
STRAND 1 08 Feb 20:53:07 20:56:04 16° 296° (WNW) 20:59:02 437.568
HO-68 08 Feb 20:55:04 21:01:09 30° 263° (W) 21:07:17 435.675
COMPASS 1 08 Feb 20:57:39 21:01:09 26° 264° (W) 21:04:41 437.405
CUTE 1.7 + AOD 2 08 Feb 21:02:07 21:04:16 14° 268° (W) 21:06:25 437.475
SEEDS 08 Feb 21:10:46 21:13:02 14° 267° (W) 21:15:20 437.485
DELFI C3 08 Feb 21:16:28 21:20:24 81° 79° (E) 21:24:24 145.870
PRISM 08 Feb 21:21:20 21:23:52 16° 293° (WNW) 21:26:24 437.425
AAUSAT CUBESAT 2 08 Feb 21:29:02 21:31:19 14° 267° (W) 21:33:37 437.432
RS-15 08 Feb 21:30:33 21:42:49 84° 243° (WSW) 21:55:08 29.354- 29.394
ZACube-1 08 Feb 21:37:34 21:41:31 37° 262° (W) 21:45:26 437.345
AIST 1 08 Feb 21:42:41 21:46:47 39° 79° (E) 21:50:50
GONETS M04 08 Feb 21:46:49 21:54:27 35° 274° (W) 22:02:06
VELOX 1 08 Feb 21:47:14 21:49:24 13° 65° (ENE) 21:51:34 145.980
50 SAT 08 Feb 21:47:28 21:49:09 13° 67° (ENE) 21:50:50 437.505
FUNcube-1 08 Feb 21:47:36 21:51:21 30° 263° (W) 21:55:02 145.935
UNISAT 6 08 Feb 21:48:15 21:51:22 19° 95° (E) 21:54:30 437.425
AISAT 08 Feb 22:02:20 22:05:40 21° 68° (ENE) 22:09:02 437.250
ISS 08 Feb 22:05:00 22:07:09 16° 29° (NNE) 22:09:19 145.825
Cosmos 2499 08 Feb 22:05:24 22:13:30 56° 270° (W) 22:20:59 435.465 / 435.565
HUMSAT D 08 Feb 22:07:30 22:11:32 61° 259° (W) 22:15:35 437.325/437.525
ESTCUBE 1 08 Feb 22:18:09 22:22:11 33° 71° (ENE) 22:26:16 437.505/2401.250
UKube-1 08 Feb 22:21:57 22:25:43 30° 71° (ENE) 22:29:29 .
CUBEBUG 1 08 Feb 22:25:17 22:29:06 29° 71° (ENE) 22:32:56 437.445
DX 1 08 Feb 22:31:09 22:35:20 46° 73° (ENE) 22:39:32 434.975-435.025
ANTELSAT 08 Feb 22:32:20 22:36:39 63° 101° (ESE) 22:41:02 437.575/2403.000
SPROUT 08 Feb 22:35:41 22:37:28 12° 66° (ENE) 22:39:15 437.525
TIGRISAT 08 Feb 22:39:39 22:43:59 74° 102° (ESE) 22:48:23 435.000
POPSAT HIP 1 08 Feb 22:47:42 22:50:45 19° 95° (E) 22:53:47 437.405
NANOSAT C BR1 08 Feb 22:53:04 22:56:19 22° 96° (E) 22:59:34 145.865
DUCHIFAT 1 08 Feb 22:55:04 22:58:19 22° 96° (E) 23:01:34 145.980
QB50P1 08 Feb 23:00:01 23:03:37 27° 97° (E) 23:07:13 145.935-145.965
50 SAT 08 Feb 23:19:27 23:22:50 34° 262° (W) 23:26:15 437.505
VELOX 1 08 Feb 23:21:05 23:25:25 50° 260° (W) 23:29:46 145.980
AIST 1 08 Feb 23:21:49 23:23:58 14° 274° (W) 23:26:05
UNISAT 6 08 Feb 23:24:16 23:28:06 31° 288° (WNW) 23:32:00 437.425
AISAT 08 Feb 23:37:59 23:41:57 31° 263° (W) 23:45:56 437.250
ISS 08 Feb 23:40:39 23:43:50 55° 225° (SW) 23:47:00 145.825
RS-15 08 Feb 23:46:06 23:53:29 19° 262° (W) 00:00:56 29.354- 29.394
POLYITAN 1 08 Feb 23:51:40 23:55:49 65° 285° (WNW) 23:59:59 437.675
QB50P2 08 Feb 23:52:23 23:56:33 62° 284° (WNW) 00:00:41 145.880/145.840
ESTCUBE 1 08 Feb 23:55:48 23:59:02 19° 266° (W) 00:02:18 437.505/2401.250
UKube-1 08 Feb 23:58:33 00:01:45 20° 265° (W) 00:04:59 .
BUGSAT 1 09 Feb 00:01:28 00:05:30 72° 101° (E) 00:09:30 437.445
CUBEBUG 1 09 Feb 00:01:57 00:05:22 22° 265° (W) 00:08:47 437.445
SPROUT 09 Feb 00:08:47 00:12:58 51° 260° (W) 00:17:10 437.525
DX 1 09 Feb 00:09:37 00:11:44 13° 267° (W) 00:13:52 434.975-435.025
ANTELSAT 09 Feb 00:12:14 00:12:50 10° 295° (WNW) 00:13:26 437.575/2403.000
TISAT 1 09 Feb 00:22:21 00:26:35 80° 76° (ENE) 00:30:49 437.305
POPSAT HIP 1 09 Feb 00:22:56 00:26:32 28° 289° (WNW) 00:30:08 437.405
ITUPSAT 1 09 Feb 00:25:29 00:28:06 15° 65° (ENE) 00:30:43 437.325
CUSAT 1 09 Feb 00:27:04 00:31:53 18° 82° (E) 00:36:48 437.405
NANOSAT C BR1 09 Feb 00:28:33 00:31:59 25° 290° (WNW) 00:35:26 145.865
DUCHIFAT 1 09 Feb 00:30:32 00:33:58 25° 290° (WNW) 00:37:22 145.980
PHONESAT 2.4 09 Feb 00:32:31 00:35:20 26° 148° (SSE) 00:38:10 2401.200-2431.200
BEESAT 09 Feb 00:34:02 00:37:16 19° 66° (ENE) 00:40:32 436.000
QB50P1 09 Feb 00:36:07 00:39:13 20° 291° (WNW) 00:42:19 145.935-145.965
Cosmos 2491 09 Feb 00:42:36 00:45:56 12° 63° (ENE) 00:49:16 435.465 / 435.565
JAS-2 09 Feb 00:43:23 00:45:41 13° 89° (E) 00:47:56 435.910
DANDE 09 Feb 00:51:08 00:55:07 15° 78° (ENE) 00:59:19 436.750
Oscar 19 09 Feb 00:58:20 01:02:43 28° 96° (E) 01:07:05 437.125/150
Gurwin Techsat 1B 09 Feb 01:20:43 01:24:06 17° 93° (E) 01:27:28 435.225
SWISSCUBE 09 Feb 01:24:28 01:29:11 71° 76° (ENE) 01:33:57 437.505
YUBILEINY 09 Feb 01:33:57 01:35:05 10° 75° (ENE) 01:36:13 435.215
BEESAT 2 09 Feb 01:38:52 01:39:59 11° 46° (NE) 01:41:06 435.950
ITUPSAT 1 09 Feb 02:00:49 02:05:27 52° 260° (W) 02:10:08 437.325
ITAMSAT 1 09 Feb 02:04:49 02:08:57 23° 95° (E) 02:13:03 435.822/435.867
CUSAT 1 09 Feb 02:05:20 02:13:06 87° 278° (W) 02:21:18 437.405
PHONESAT 2.4 09 Feb 02:09:13 02:12:28 61° 343° (NNW) 02:15:43 2401.200-2431.200
BEESAT 09 Feb 02:10:16 02:14:44 40° 261° (W) 02:19:13 436.000
STARS 09 Feb 02:18:41 02:21:22 16° 67° (ENE) 02:24:03 437.465
MOZHAYETS 4 09 Feb 02:19:41 02:20:56 11° 64° (ENE) 02:22:11
JAS-2 09 Feb 02:25:50 02:31:25 62° 286° (WNW) 02:36:33 435.910
DANDE 09 Feb 02:29:15 02:36:38 85° 97° (E) 02:45:09 436.750
KKS-1 09 Feb 02:31:00 02:35:12 42° 73° (ENE) 02:39:24 437.445
Cosmos 2491 09 Feb 02:35:31 02:44:18 75° 83° (E) 02:53:04 435.465 / 435.565
Oscar 19 09 Feb 02:37:34 02:41:57 29° 291° (WNW) 02:46:19 437.125/150
BEESAT 3 09 Feb 02:52:06 02:56:03 76° 244° (WSW) 02:59:57 437.485
Gurwin Techsat 1B 09 Feb 02:59:09 03:04:18 51° 288° (WNW) 03:09:25 435.225
BEESAT 2 09 Feb 03:14:21 03:18:19 67° 243° (WSW) 03:22:14 435.950
YUBILEINY 09 Feb 03:21:27 03:30:09 72° 93° (E) 03:38:56 435.215
AO-7 09 Feb 03:22:55 03:30:32 38° 99° (E) 03:38:04 29.400- 29.500
AIST 2 09 Feb 03:24:22 03:26:51 15° 49° (NE) 03:29:19 435.215
Cosmos 2504 09 Feb 03:43:30 03:48:59 19° 79° (E) 03:54:38 435.465 / 435.565
ITAMSAT 1 09 Feb 03:43:41 03:48:27 37° 290° (WNW) 03:53:13 435.822/435.867
PHONESAT 2.4 09 Feb 03:47:01 03:50:03 33° 359° (N) 03:53:04 2401.200-2431.200
CUSAT 1 09 Feb 03:51:30 03:56:26 17° 295° (WNW) 04:01:26 437.405
HORYU 2 09 Feb 03:52:35 03:55:58 21° 96° (E) 03:59:20 437.375
MOZHAYETS 4 09 Feb 03:53:00 03:57:30 65° 259° (W) 04:02:04
STARS 09 Feb 03:53:15 03:57:23 40° 261° (W) 04:01:33 437.465
KKS-1 09 Feb 04:09:21 04:11:56 15° 267° (W) 04:14:30 437.445
DANDE 09 Feb 04:15:20 04:20:40 20° 296° (WNW) 04:26:25 436.750
M-CUBED/EXP-1 PRIME 09 Feb 04:29:55 04:33:19 77° 107° (ESE) 04:36:55 437.505
CUBESAT XI-V 09 Feb 04:31:21 04:35:24 30° 70° (ENE) 04:39:28 437.345
Cosmos 2491 09 Feb 04:34:25 04:40:05 20° 280° (W) 04:45:48 435.465 / 435.565
AUBIESAT-1 09 Feb 04:40:37 04:44:05 86° 113° (ESE) 04:47:44 437.475
AIST 2 09 Feb 05:01:38 05:05:35 46° 245° (WSW) 05:09:30 435.215
SO-50 09 Feb 05:15:22 05:20:14 82° 299° (WNW) 05:25:13 436.795
AO-7 09 Feb 05:15:34 05:23:15 44° 296° (WNW) 05:30:55 29.400- 29.500
CUTE-I 09 Feb 05:16:08 05:18:22 12° 91° (E) 05:20:34 437.470
YUBILEINY 09 Feb 05:21:20 05:27:43 22° 292° (WNW) 05:34:10 435.215
PHONESAT 2.4 09 Feb 05:24:25 05:27:39 56° 17° (NNE) 05:30:51 2401.200-2431.200
Cubesat XI-IV 09 Feb 05:28:26 05:31:56 17° 93° (E) 05:35:25 437.490
HORYU 2 09 Feb 05:28:39 05:32:30 30° 290° (WNW) 05:36:22 437.375
Cosmos 2504 09 Feb 05:32:45 05:41:13 79° 277° (W) 05:50:09 435.465 / 435.565
LilacSat-2 09 Feb 05:55:13 05:58:16 23° 96° (E) 06:01:19 437.200
CUBESAT XI-V 09 Feb 06:09:00 06:12:44 23° 265° (W) 06:16:31 437.345
BRITE-PL 09 Feb 06:20:57 06:24:58 28° 95° (E) 06:28:43 437.365/2234.400
STRAND 1 09 Feb 06:25:16 06:30:17 61° 74° (ENE) 06:35:21 437.568
PRISM 09 Feb 06:32:32 06:35:28 19° 68° (ENE) 06:38:24 437.425
CUTE-I 09 Feb 06:53:29 06:58:50 69° 286° (WNW) 07:04:09 437.470
SO-50 09 Feb 06:59:48 07:01:31 12° 318° (NW) 07:03:14 436.795
PHONESAT 2.4 09 Feb 07:01:54 07:04:49 30° 211° (SSW) 07:07:43 2401.200-2431.200
Cubesat XI-IV 09 Feb 07:07:02 07:12:14 51° 288° (WNW) 07:17:26 437.490
DOVE 4 09 Feb 07:17:07 07:20:38 25° 96° (E) 07:24:04 437.250
LilacSat-2 09 Feb 07:29:43 07:32:26 19° 290° (WNW) 07:35:08 437.200
GOMX 1 09 Feb 07:31:00 07:35:26 84° 104° (ESE) 07:39:36 467.674
Cosmos 2504 09 Feb 07:31:55 07:36:06 14° 297° (WNW) 07:40:22 435.465 / 435.565
CANX-2 09 Feb 07:56:56 08:00:52 34° 98° (E) 08:04:46 2200.000
BRITE-PL 09 Feb 07:59:35 08:03:17 23° 292° (WNW) 08:06:47 437.365/2234.400
O/OREOS (USA 219) 09 Feb 08:00:48 08:05:14 71° 108° (ESE) 08:09:43 437.305
PRISM 09 Feb 08:06:55 08:10:34 30° 262° (W) 08:14:15 437.425
STRAND 1 09 Feb 08:07:30 08:09:49 13° 268° (W) 08:12:09 437.568
CINEMA 3 09 Feb 08:17:22 08:21:18 41° 99° (E) 08:25:15 145.822/145.860
HO-68 09 Feb 08:24:28 08:31:37 64° 103° (ESE) 08:38:43 435.675
CUBEBUG 2 09 Feb 08:30:37 08:33:41 19° 95° (E) 08:36:46 437.445
UWE-3 09 Feb 08:33:43 08:36:07 15° 94° (E) 08:38:34 435.000/436.395/437.385
Oscar 11 09 Feb 08:37:21 08:39:52 15° 93° (E) 08:42:23 145.826/435.025
COMPASS 1 09 Feb 08:42:39 08:46:50 57° 101° (E) 08:50:58 437.405
Cosmos 2499 09 Feb 08:45:53 08:52:21 24° 82° (E) 08:58:54 435.465 / 435.565
UNISAT 6 09 Feb 08:46:03 08:47:49 12° 66° (ENE) 08:49:35 437.425
GONETS M04 09 Feb 08:46:42 08:55:06 58° 91° (E) 09:03:34
CUTE 1.7 + AOD 2 09 Feb 08:47:29 08:51:45 66° 283° (WNW) 08:55:59 437.475
JUGNU 09 Feb 08:51:59 08:54:53 14° 171° (S) 08:57:47 437.505
DOVE 4 09 Feb 08:55:02 08:58:13 21° 291° (WNW) 09:01:20 437.250
SEEDS 09 Feb 08:55:18 08:59:33 72° 284° (WNW) 09:03:47 437.485
DELFI C3 09 Feb 08:59:06 09:01:00 13° 93° (E) 09:02:55 145.870
AAUSAT CUBESAT 2 09 Feb 09:12:06 09:16:18 77° 283° (WNW) 09:20:29 437.432
ZACube-1 09 Feb 09:28:16 09:32:20 46° 99° (E) 09:36:28 437.345
ANTELSAT 09 Feb 09:28:34 09:32:35 38° 73° (ENE) 09:36:33 437.575/2403.000
CANX-2 09 Feb 09:33:34 09:36:26 18° 292° (WNW) 09:39:18 2200.000
TIGRISAT 09 Feb 09:35:36 09:39:43 43° 73° (ENE) 09:43:47 435.000
FUNcube-1 09 Feb 09:37:40 09:41:50 57° 100° (E) 09:46:03 145.935
POPSAT HIP 1 09 Feb 09:39:39 09:40:44 11° 65° (ENE) 09:41:50 437.405
RS-15 09 Feb 09:43:35 09:50:00 17° 98° (E) 09:56:32 29.354- 29.394
NANOSAT C BR1 09 Feb 09:44:12 09:45:53 12° 66° (ENE) 09:47:35 145.865
O/OREOS (USA 219) 09 Feb 09:44:19 09:45:08 10° 305° (NW) 09:45:58 437.305
DUCHIFAT 1 09 Feb 09:45:59 09:47:40 12° 66° (ENE) 09:49:20 145.980
PCSat 09 Feb 09:47:47 09:51:23 18° 105° (ESE) 09:55:01 145.827
QB50P1 09 Feb 09:50:51 09:53:20 15° 67° (ENE) 09:55:49 145.935-145.965
HUMSAT D 09 Feb 09:54:10 09:57:38 25° 96° (E) 10:01:06 437.325/437.525
CINEMA 3 09 Feb 09:56:02 09:58:05 14° 293° (WNW) 10:00:09 145.822/145.860
CUBEBUG 2 09 Feb 10:06:42 10:10:18 28° 288° (WNW) 10:13:57 437.445
UWE-3 09 Feb 10:08:50 10:12:43 37° 287° (WNW) 10:16:39 435.000/436.395/437.385
AIST 1 09 Feb 10:09:08 10:12:51 27° 90° (E) 10:16:35
Oscar 11 09 Feb 10:12:05 10:16:08 39° 287° (WNW) 10:20:10 145.826/435.025
HO-68 09 Feb 10:13:22 10:18:43 23° 299° (WNW) 10:24:03 435.675
AO-85 09 Feb 10:15:20 10:20:31 62° 116° (ESE) 10:25:57 145.980
UNISAT 6 09 Feb 10:19:52 10:24:05 50° 260° (W) 10:28:17 437.425
COMPASS 1 09 Feb 10:20:52 10:21:53 11° 295° (WNW) 10:22:53 437.405
SRMSAT 09 Feb 10:27:08 10:29:25 12° 168° (SSE) 10:31:42 437.500
DELFI C3 09 Feb 10:32:17 10:36:04 39° 286° (WNW) 10:39:50 145.870
Cosmos 2499 09 Feb 10:36:02 10:44:36 67° 279° (W) 10:53:30 435.465 / 435.565
JUGNU 09 Feb 10:39:36 10:43:07 16° 181° (S) 10:46:38 437.505
POLYITAN 1 09 Feb 10:41:11 10:45:22 62° 75° (ENE) 10:49:32 437.675
QB50P2 09 Feb 10:41:51 10:46:03 65° 75° (ENE) 10:50:15 145.880/145.840
GONETS M04 09 Feb 10:45:18 10:52:20 27° 289° (WNW) 10:59:27
BUGSAT 1 09 Feb 10:48:23 10:52:10 33° 72° (ENE) 10:55:57 437.445
50 SAT 09 Feb 10:53:51 10:57:01 24° 97° (E) 11:00:10 437.505
ZACube-1 09 Feb 11:06:17 11:08:14 13° 293° (WNW) 11:10:11 437.345
ANTELSAT 09 Feb 11:06:53 11:09:25 15° 266° (W) 11:11:56 437.575/2403.000
POPSAT HIP 1 09 Feb 11:11:51 11:16:01 56° 260° (W) 11:20:12 437.405
VELOX 1 09 Feb 11:14:15 11:18:20 36° 98° (E) 11:22:22 145.980
TIGRISAT 09 Feb 11:14:32 11:16:35 13° 267° (W) 11:18:38 435.000
FUNcube-1 09 Feb 11:16:42 11:17:36 11° 294° (WNW) 11:18:29 145.935
NANOSAT C BR1 09 Feb 11:17:04 11:21:11 49° 260° (W) 11:25:17 145.865
DUCHIFAT 1 09 Feb 11:18:49 11:22:55 49° 260° (W) 11:27:01 145.980
QB50P1 09 Feb 11:24:49 11:28:47 38° 261° (W) 11:32:45 145.935-145.965
PCSat 09 Feb 11:29:04 11:34:19 51° 300° (WNW) 11:39:37 145.827
HUMSAT D 09 Feb 11:29:52 11:33:08 23° 290° (WNW) 11:36:26 437.325/437.525
AISAT 09 Feb 11:30:35 11:34:57 60° 101° (E) 11:39:16 437.250
AIST 1 09 Feb 11:47:07 11:50:25 20° 285° (WNW) 11:53:44
UKube-1 09 Feb 11:47:13 11:51:33 83° 101° (E) 11:55:52 .
RS-15 09 Feb 11:49:26 12:00:29 86° 117° (ESE) 12:12:12 29.354- 29.394
ESTCUBE 1 09 Feb 11:49:39 11:54:12 74° 285° (WNW) 11:58:43 437.505/2401.250
CUBEBUG 1 09 Feb 11:52:17 11:56:40 87° 103° (ESE) 12:00:59 437.445
AO-85 09 Feb 11:57:35 12:01:31 20° 313° (NW) 12:05:31 145.980
SPROUT 09 Feb 11:58:00 12:01:49 32° 97° (E) 12:05:38 437.525
DX 1 09 Feb 11:58:06 12:02:24 61° 285° (WNW) 12:06:40 434.975-435.025
TISAT 1 09 Feb 12:10:43 12:13:07 15° 94° (E) 12:15:31 437.305
Oscar 19 09 Feb 12:12:19 12:16:52 32° 69° (ENE) 12:21:25 437.125/150
SRMSAT 09 Feb 12:14:13 12:17:48 16° 178° (S) 12:21:23 437.500
BUGSAT 1 09 Feb 12:24:53 12:27:37 17° 266° (W) 12:30:19 437.445
50 SAT 09 Feb 12:28:11 12:30:52 18° 290° (WNW) 12:33:32 437.505
JUGNU 09 Feb 12:29:07 12:31:20 12° 192° (SSW) 12:33:33 437.505
JAS-2 09 Feb 12:32:27 12:39:41 45° 70° (ENE) 12:46:23 435.910
Cosmos 2499 09 Feb 12:37:00 12:39:30 11° 299° (WNW) 12:42:01 435.465 / 435.565
Gurwin Techsat 1B 09 Feb 12:38:59 12:42:55 21° 66° (ENE) 12:46:50 435.225
CUSAT 1 09 Feb 12:48:00 12:53:39 54° 76° (ENE) 12:57:51 437.405
VELOX 1 09 Feb 12:51:34 12:54:30 18° 293° (WNW) 12:57:27 145.980
AISAT 09 Feb 13:09:38 13:10:53 11° 296° (WNW) 13:12:08 437.250
DANDE 09 Feb 13:15:31 13:22:22 57° 76° (ENE) 13:27:30 436.750
ITAMSAT 1 09 Feb 13:20:04 13:24:21 27° 68° (ENE) 13:28:41 435.822/435.867
SWISSCUBE 09 Feb 13:28:16 13:32:03 23° 96° (E) 13:35:49 437.505
SPROUT 09 Feb 13:34:38 13:37:32 18° 292° (WNW) 13:40:27 437.525
YUBILEINY 09 Feb 13:35:57 13:43:31 31° 72° (ENE) 13:51:00 435.215
Cosmos 2491 09 Feb 13:41:06 13:45:46 16° 79° (ENE) 13:50:24 435.465 / 435.565
TISAT 1 09 Feb 13:45:04 13:48:54 36° 288° (WNW) 13:52:43 437.305
SO-50 09 Feb 13:49:58 13:54:31 41° 55° (NE) 13:58:54 436.795
Oscar 19 09 Feb 13:51:49 13:56:08 27° 264° (W) 14:00:28 437.125/150
SRMSAT 09 Feb 14:03:13 14:06:12 14° 189° (S) 14:09:10 437.500
ITUPSAT 1 09 Feb 14:04:05 14:08:46 49° 100° (E) 14:13:25 437.325
RS-15 09 Feb 14:05:08 14:14:30 29° 322° (NW) 14:24:20 29.354- 29.394
BEESAT 09 Feb 14:12:52 14:17:38 64° 101° (ESE) 14:22:23 436.000
Gurwin Techsat 1B 09 Feb 14:17:31 14:22:31 42° 261° (W) 14:27:34 435.225
JAS-2 09 Feb 14:17:48 14:24:39 34° 263° (W) 14:31:06 435.910
AO-7 09 Feb 14:18:42 14:26:21 42° 64° (ENE) 14:34:01 29.400- 29.500
CUSAT 1 09 Feb 14:32:47 14:34:46 12° 282° (WNW) 14:36:36 437.405
ISS 09 Feb 14:42:55 14:45:06 17° 129° (SE) 14:47:16 145.825
HORYU 2 09 Feb 14:49:02 14:51:26 15° 66° (ENE) 14:53:50 437.375
ITAMSAT 1 09 Feb 14:59:06 15:03:40 31° 263° (W) 15:08:17 435.822/435.867
DANDE 09 Feb 15:00:12 15:04:14 17° 281° (W) 15:07:44 436.750
SWISSCUBE 09 Feb 15:05:35 15:09:50 32° 290° (WNW) 15:14:04 437.505
M-CUBED/EXP-1 PRIME 09 Feb 15:14:35 15:18:17 60° 71° (ENE) 15:21:44 437.505
AUBIESAT-1 09 Feb 15:24:50 15:28:31 66° 71° (ENE) 15:31:59 437.475
SO-50 09 Feb 15:31:19 15:34:39 19° 251° (WSW) 15:37:55 436.795
